Location: ?astrovice
(49.6513°N, 14.9287°E)
Time: 22:33:40
(UTC+00:00)

Thor Agena Rocket - Pass Details

Date: 09 April 2020
Orbit: 760 x 807 km, 99.0° (Epoch: 26 May)

Event Time Altitude Azimuth Distance (km) Brightness Sun altitude
Rises 21:30:15 0° 16° (NNE) 3,242 7.4 -29.0°
Reaches altitude 10° 21:32:34 10° 18° (NNE) 2,316 6.5 -29.2°
Enters shadow 21:36:21 50° 33° (NNE) 979 4.1 -29.4°
